Weather in Sosnogorsk

Russia / Komi Republic     63°35′56″N   53°52′35″E
temp.,
°C
wind,
m/s
gust,
m/s
humid.,
%
clouds,
%
prec.,
mm/h
press.,
hPa
HPBL,
m
16 january, sun
sun1600:00−19nnw1199100 0.0 98924
03:00−19nnw1299100 0.0 99043
06:00−15nnw1396100 0.1 989103
09:00−15nnw2497100 0.3 990150
12:00−14nw129784 0.1 99188
15:00−16nw249892 0.1 992100
18:00−16wnw119966 0.1 99223
21:00−21w1110092 0.1 99210
17 january, mon
mon1700:00−22ssw11100100 0.0 9929
03:00−22ssw1110099 0.1 99229
06:00−22s2210098 0.0 99137
09:00−20sse2610057 0.0 990105
12:00−15sse4129483 0.0 989302
15:00−14sse41094100 0.0 988347
18:00−13sse4994100 0.3 989351
21:00−12sse3994100 0.8 989336
18 january, tue
tue1800:00−11sse3995100 0.4 990332
03:00−9sse3995100 1.0 990412
06:00−7s3995100 1.0 991557
09:00−7ssw3994100 1.6 992523
12:00−7ssw399298 0.2 994519
15:00−8ssw399379 0.3 997396
18:00−9sw379568 0.0 999206
21:00−11sw289774 0.1 1001202
19 january, wed
wed1900:00−13sw269899 0.0 1003131
03:00−15wsw239857 0.0 100537
06:00−18wsw259834 0.0 100677
09:00−17wsw2697100 0.0 1008111
12:00−14wsw26968 0.0 1010144
15:00−17sw239948 0.0 101139
18:00−14ssw31096100 0.0 1011217
21:00−12ssw31292100 0.0 1010343
20 january, thu
thu2000:00−13ssw4129392 0.0 1010330
03:00−12ssw51586100 0.0 1011481
06:00−11ssw51784100 0.0 1010544
09:00−9ssw61783100 0.0 1010680
12:00−7ssw6168297 0.0 1011801
15:00−8ssw6168486 0.0 1011749
18:00−9ssw6168586 0.0 1012685
21:00−9ssw6168598 0.0 1012688